STARLINK-34042, 63838

Orbit data source: Space-Track

STARLINK-34042, 63838 is a payload satellite owned by SpaceX/Seattle (US) in LEO that was launched on Wed, 07 May 2025 UTC via an FALCON 9 launch vehicle from the Air Force Eastern Test Range (AFETR). Payload-class satellites include a variety of spacecraft equipped with specific instruments for various scientific and technological missions. These include communications satellites like Starlink; space stations such as the ISS; scientific satellites like the Hubble; Earth observation satellites from companies like Planet Labs, Umbra, and HawkEye 360; GPS; miniature CubeSats for education and research; and military/defense satellites.

Loading next visibility...
Identifier
63838, 2025-093C
Orbit
LEO
Country
Flag of USUS
Related business
Manufacturer
SpaceX/Seattle
Mission
Operational Commercial Communications
Bus & Motor
STARLINK V2MO, Unknown motor
Mass
575 kg wet, ~530 kg dry
Launch date (UTC)
2025-05-07 (7 months ago)
Launch vehicle
FALCON 9
Launch site
Air Force Eastern Test Range (AFETR)
Object type
Payload
Rocket body
Debris
Shape & HBR
Box + 2 Pan, 17.7 m
Radar Cross Section
36.964 m², Large (>1 m²)

Expand to show TLE details & history
Last TLE update: 7 hours ago

TLE from 7 hours ago
0 STARLINK-34042
1 63838U 25093C   25349.91075752  .00023973  00000-0  87710-3 0  9996
2 63838  42.9983 187.1997 0001616 275.2099  84.8568 15.27607967 35204
Epoch: 2025-12-15T21:51Z
TLE epoch observation values (Epoch: 2025-12-15T21:51:29.449Z)
Latitude
-0.00004°
Longitude
134.52441°
Altitude
482.641 km
Speed
7.626 km/s
True Right ascension
12h 28m 47s
True Declination
0° 00' 00"
Sunlit
Object was in daylight at epoch
Visualization orbit readout
Latitude
Unknown
Longitude
Unknown
Altitude
Unknown
Speed
Unknown
Apparent Right ascension
Unknown
Apparent Declination
Unknown
Sunlit
N/A
Visualization observer readout
Local Sidereal Time
03:10:35
Azimuth
Unknown
Elevation
Unknown
Doppler factor
Unknown
Orbital elements
Apogee altitude
486.02 km
Perigee altitude
483.802 km
Semi-major axis
6,863.048 km
Eccentricity
0.00016
Inclination
42.9983°
RAAN
187.1997°
Arg. of periapsis
275.2099°
True anomaly
84.87524°
Mean anomaly
84.8568°
Eccentric anomaly
84.86602°
Mean motion
3.8174 °/min
Orbital period
94.31 mins
BSTAR
0.0008771
Loading maneuver chart data...
Computing Atmospheric mass density...
Loading historical data...
Loading historical data...
Loading historical data...
Loading historical data...
Loading historical data...
Loading historical data...
Loading historical data...

Documentation

Showing up to 5 results
|